Location: Anuling
(14.1239°N, 120.8922°E)
Time: 01:52:54
(UTC+00:00)

GPS 2-17 Rocket1 - Pass Details

Date: 19 April 2026
Orbit: 544 x 613 km, 20.3° (Epoch: 19 May)

Event Time Altitude Azimuth Distance (km) Brightness Sun altitude
Rises 11:00:14 0° 282° (WNW) 2,840 8.6 -12.5°
Reaches altitude 10° 11:02:35 10° 278° (W) 1,944 7.1 -13.1°
Maximum altitude 11:07:05 61° 198° (SSW) 687 3.3 -14.1°
Enters shadow 11:09:49 23° 124° (SE) 1,299 4.1 -14.8°
